This demonstration page uses our WeatherBlox Daily Observations layout. Learn more.

Left ArrowRight Arrow

36.19886, -115.1175

Hourly Observations for May 31, 2020

Temp ( °F °C ) Dew Point ( °F °C ) Humidity (%) Winds ( mph kmh ) Pressure ( in mb ) Visibility ( mi km ) Precip ( " mm )
12:53 am 00:53 Clear 83 28.3 29 -1.7 14 14 SSW 13 20 29.74 1007 10 16 N/A
1:53 am 01:53 Clear 80 26.7 31 -0.6 17 17 E 8 13 29.75 1008 10 16 N/A
2:53 am 02:53 Clear 79 26.1 33 0.6 19 19 SE 10 17 29.76 1008 10 16 N/A
3:53 am 03:53 Clear 77 25 35 1.7 22 22 SSE 13 20 29.78 1008 10 16 N/A
4:53 am 04:53 Clear 76 24.4 36 2.2 23 23 SSE 7 11 29.79 1009 10 16 N/A
5:53 am 05:53 Sunny 75 23.9 36 2.2 24 24 SSE 8 13 29.81 1010 10 16 N/A
6:53 am 06:53 Sunny 75 23.9 37 2.8 25 25 SSE 5 7 29.83 1010 10 16 N/A
7:53 am 07:53 Sunny 77 25 39 3.9 26 26 E 6 9 29.85 1011 10 16 N/A
8:53 am 08:53 Sunny 80 26.7 38 3.3 22 22 SSE 8 13 29.85 1011 10 16 N/A
9:53 am 09:53 Sunny 83 28.3 35 1.7 18 18 E 3 6 29.85 1011 10 16 N/A
10:53 am 10:53 Sunny 86 30 34 1.1 15 15 E 8 13 29.84 1010 10 16 N/A
11:53 am 11:53 Sunny 89 31.7 33 0.6 14 14 ESE 6 9 29.83 1010 10 16 N/A
12:53 pm 12:53 Sunny 94 34.4 30 -1.1 10 10 SSE 12 19 29.80 1009 10 16 N/A
1:53 pm 13:53 Sunny 94 34.4 30 -1.1 10 10 VRB 5 7 29.78 1009 10 16 N/A
2:53 pm 14:53 Sunny 98 36.7 28 -2.2 8 8 WSW 14 22 29.75 1008 10 16 N/A
3:53 pm 15:53 Sunny 97 36.1 28 -2.2 9 9 SW 13 20 29.74 1007 10 16 N/A
4:53 pm 16:53 Sunny 98 36.7 27 -2.8 8 8 SSW 23 37 29.73 1007 10 16 N/A
5:53 pm 17:53 Sunny 95 35 24 -4.4 8 8 W 12 19 29.73 1007 10 16 N/A
6:53 pm 18:53 Sunny 95 35 24 -4.4 8 8 SW 15 24 29.73 1007 10 16 N/A
7:53 pm 19:53 Clear 92 33.3 22 -5.6 8 8 WSW 10 17 29.75 1007 10 16 N/A
8:53 pm 20:53 Clear 90 32.2 25 -3.9 9 9 SW 9 15 29.77 1008 10 16 N/A
9:53 pm 21:53 Clear 88 31.1 27 -2.8 11 11 WSW 10 17 29.80 1009 10 16 N/A
10:53 pm 22:53 Clear 86 30 28 -2.2 12 12 S 7 11 29.81 1009 10 16 N/A
11:53 pm 23:53 Clear 85 29.4 29 -1.7 13 13 S 8 13 29.81 1010 10 16 N/A

Powered by AerisWeather